Home > Weather > Khan Yunis > Past weeks

Flag for Palestinian Territories Weather for the Past 2 Weeks in Khan Yunis, Gaza Strip, Palestinian Territories

Now
52 °F

Clear.


Feels Like: 48 °F
Forecast: 55 / 59 °F
Wind: 10 mph from Southwest

Location: El Arish

Current Time: Feb 6, 2016 at 9:52:52 PM

Latest Report: Feb 6, 2016 at 9:00 PM


Visibility: 10 mi

Pressure: 30.04 "Hg

Humidity: 94%

Dew point: 50 °F

Location of Khan YunisLocation

Historic Weather in Khan Yunis — Graph

°F

Khan Yunis Temperature Yesterday

Maximum temperature yesterday: 79 °F (at 12:00 PM)
Minimum temperature yesterday: 45 °F (at 4:00 AM)
Average temperature yesterday: 59 °F

High & Low Weather Summary for the Past Weeks

 TemperatureHumidityPressure
High79 °F (Feb 4, 3:00 PM)100% (Jan 22, 10:00 PM)30.45 "Hg (Jan 22, 10:00 PM)
Low36 °F (Jan 28, 6:00 AM)21% (Feb 4, 3:00 PM)29.95 "Hg (Feb 5, 6:00 AM)
Average53 °F86%30.19 "Hg
* Reported Jan 22 8:00 PM — Feb 6 8:00 PM, Khan Yunis, Weather by CustomWeather, © 2016

Note: Actual official high and low records may vary slightly from our data, if they occured in-between our weather recording intervals... More about our weather records

Advertising

Khan Yunis Weather History for the Previous 24 Hours

 ConditionsComfort  
Time TempWeatherWind HumidityBarometerVisibility
8:00 PM
Sat, Feb 6
52 °FClear.10 mph88%30.04 "Hg10 mi
7:00 PM54 °FPassing clouds.10 mph82%30.04 "HgN/A
6:00 PM54 °FRain. Passing clouds.3 mph88%30.01 "Hg5 mi
5:00 PM55 °FBroken clouds.9 mph77%30.01 "HgN/A
4:00 PM57 °FPartly sunny.17 mph72%29.98 "HgN/A
3:00 PM61 °FPartly sunny.15 mph59%29.98 "HgN/A
2:00 PM63 °FScattered clouds.14 mph56%29.98 "HgN/A
1:00 PM66 °FScattered clouds.14 mph40%29.98 "HgN/A
12:00 PM66 °FScattered clouds.15 mph46%30.01 "HgN/A
11:00 AM64 °FScattered clouds.15 mph49%30.04 "HgN/A
10:00 AM63 °FSunny.12 mph56%30.04 "Hg10 mi
8:00 AM57 °FClear.8 mph88%30.04 "Hg5 mi
7:00 AM55 °FFog.7 mph94%30.04 "Hg3 mi
6:00 AM55 °FFog.7 mph100%30.04 "Hg2 mi
5:00 AM57 °FPassing clouds.17 mph82%30.01 "HgN/A
3:00 AM50 °FClear.3 mph100%30.01 "Hg10 mi
2:00 AM48 °FClear.2 mph100%30.04 "Hg10 mi
1:00 AM50 °FClear.5 mph100%30.04 "Hg10 mi
12:00 AM52 °FClear.5 mph100%30.04 "Hg10 mi
11:00 PM
Fri, Feb 5
54 °FClear.5 mph100%30.07 "Hg10 mi
10:00 PM55 °FClear.1 mph94%30.07 "Hg10 mi
9:00 PM57 °FClear.No wind82%30.07 "Hg10 mi
Weather by CustomWeather, © 2016

See weather overviewHow to use our weather pages